S55G-5 Weather Reports


Display with metric or nautical units.
time (UTC)temp
F
wind
direction
speed
MPH
gust
MPH
rain 1hr
in
rain 24hr
in
rain mn
in
humidity
%
barometer
mb
20260507060217 62 94 1.0 2.0 0.00 0.79 0.00 87 1013.2
20260507055403 62 90 0.0 2.0 0.00 0.79 0.00 88 1013.3
20260507054718 62 89 2.0 2.0 0.00 0.79 0.00 88 1013.2
20260507053603 60 58 0.0 2.0 0.00 0.79 0.00 93 1012.9
20260507052703 59 87 1.0 2.0 0.00 0.81 0.00 95 1012.9
20260507052018 58 86 1.0 2.0 0.00 0.84 0.00 95 1013.1
20260507051117 57 71 0.0 2.0 0.00 0.84 0.00 95 1012.9
20260507050003 57 97 0.0 2.0 0.00 0.84 0.00 95 1012.9
20260507045403 57 84 0.0 2.0 0.00 0.84 0.00 95 1012.8
20260507044503 57 72 1.0 2.0 0.00 0.84 0.00 95 1012.5
20260507043818 57 72 1.0 2.0 0.00 0.84 0.00 95 1012.5
20260507042703 57 94 0.0 2.0 0.00 0.84 0.00 95 1012.5
20260507041803 57 68 2.0 2.0 0.00 0.84 0.00 95 1012.4
20260507040903 57 95 0.0 2.0 0.00 0.84 0.00 95 1012.5
20260507040003 57 319 0.0 2.0 0.00 0.84 0.00 94 1012.3
20260507035403 57 41 1.0 2.0 0.00 0.84 0.00 94 1012.1
20260507034503 57 84 0.0 2.0 0.00 0.84 0.00 93 1012.4
20260507033603 58 85 1.0 2.0 0.00 0.84 0.00 93 1012.2
20260507032703 58 139 2.0 2.0 0.00 0.84 0.00 92 1012.4
20260507031803 59 39 1.0 4.0 0.00 0.84 0.00 91 1012.6
20260507031118 59 50 2.0 4.0 0.00 0.84 0.00 91 1012.5
20260507030004 59 23 1.0 2.0 0.00 0.84 0.00 91 1012.3
20260507025403 59 42 0.0 2.0 0.00 0.84 0.00 90 1012.2
20260507024503 59 80 1.0 4.0 0.00 0.84 0.00 92 1012.3
20260507023603 58 45 0.0 2.0 0.00 0.84 0.00 92 1012.2
20260507022703 59 86 2.0 4.0 0.00 0.84 0.00 91 1012.3
20260507021803 59 105 0.0 2.0 0.00 0.84 0.00 90 1012.4
20260507020903 60 81 1.0 2.0 0.00 0.84 0.00 90 1012.3
20260507020003 60 74 1.0 2.0 0.00 0.84 0.00 89 1012.4
20260507015403 60 85 0.0 2.0 0.00 0.84 0.00 90 1012.5
20260507014718 60 100 2.0 4.0 0.00 0.84 0.00 90 1012.3
20260507013817 60 54 2.0 6.0 0.00 0.84 0.00 90 1012.4
20260507012703 60 71 2.0 4.0 0.00 0.84 0.00 89 1012.2
20260507011803 60 74 2.0 7.0 0.00 0.84 0.00 90 1012.2
20260507010903 59 60 0.0 2.0 0.00 0.84 0.00 91 1012.4
20260507010004 58 7 1.0 2.0 0.00 0.84 0.00 91 1012.3
20260507005403 58 84 1.0 4.0 0.00 0.84 0.00 91 1012.3
20260507004503 58 101 2.0 4.0 0.00 0.84 0.00 90 1012.2
20260507003603 59 70 2.0 4.0 0.00 0.84 0.00 90 1012.5
20260507002703 59 99 0.0 2.0 0.00 0.84 0.00 89 1012.1
20260507001803 59 85 2.0 2.0 0.00 0.84 0.00 89 1012.1
20260507000903 58 55 1.0 2.0 0.00 0.84 0.00 90 1012.3
20260507000003 58 108 1.0 2.0 0.00 0.84 0.00 90 1012.4
20260506235403 59 101 1.0 4.0 0.00 0.84 0.00 89 1012.4
20260506234718 59 94 2.0 4.0 0.00 0.84 0.00 89 1012.4
20260506233817 59 101 2.0 4.0 0.00 0.84 0.00 88 1012.6
20260506232918 59 91 2.0 4.0 0.00 0.84 0.00 89 1012.6
20260506232018 59 89 1.0 4.0 0.00 0.84 0.00 89 1012.8
20260506230903 58 55 1.0 2.0 0.00 0.84 0.00 90 1012.9
20260506230218 59 82 0.0 4.0 0.00 0.84 0.00 89 1012.8
20260506225403 59 116 0.0 4.0 0.00 0.84 0.00 90 1012.8
20260506224503 59 82 2.0 6.0 0.00 0.84 0.00 89 1012.5
20260506223603 59 116 2.0 2.0 0.00 0.84 0.00 89 1012.9
20260506222703 59 90 1.0 4.0 0.00 0.84 0.00 88 1012.7
20260506222017 59 94 2.0 4.0 0.00 0.84 0.00 89 1012.5
20260506220903 59 90 1.0 2.0 0.00 0.84 0.00 90 1012.7
20260506220003 59 37 0.0 2.0 0.00 0.84 0.00 89 1012.7
20260506215403 59 61 0.0 4.0 0.00 0.84 0.84 89 1012.6
20260506214503 59 54 2.0 4.0 0.00 0.84 0.84 89 1012.5
20260506213818 59 9 1.0 4.0 0.00 0.84 0.84 89 1012.5
20260506212703 60 10 1.0 2.0 0.00 0.84 0.84 90 1012.5
20260506212017 59 327 1.0 4.0 0.00 0.84 0.84 90 1012.3
20260506210903 60 38 2.0 4.0 0.00 0.84 0.84 87 1012.3
20260506210003 60 29 0.0 2.0 0.00 0.84 0.84 87 1012.3
20260506205403 60 33 1.0 4.0 0.00 0.84 0.84 88 1012.5
20260506204503 59 70 0.0 4.0 0.00 0.84 0.84 91 1012.3
20260506203603 59 25 1.0 2.0 0.00 0.84 0.84 93 1012.5
20260506202703 59 34 1.0 2.0 0.00 0.84 0.84 93 1012.4
20260506201803 59 352 0.0 4.0 0.00 0.85 0.84 93 1012.3
20260506200903 60 14 0.0 4.0 0.00 0.86 0.84 93 1012.3
20260506200003 60 292 1.0 2.0 0.00 0.86 0.84 92 1012.4
20260506195403 60 289 1.0 2.0 0.00 0.86 0.84 92 1012.4
20260506194718 60 280 0.0 2.0 0.00 0.86 0.84 91 1012.3
20260506193817 60 324 1.0 2.0 0.00 0.86 0.84 91 1011.9
20260506192703 60 313 2.0 4.0 0.00 0.86 0.84 91 1011.9
20260506191803 60 14 0.0 4.0 0.00 0.86 0.84 91 1011.6
20260506190903 60 17 2.0 4.0 0.00 0.86 0.84 91 1011.6
20260506190004 61 90 3.0 8.0 0.00 0.86 0.84 90 1011.4
20260506185403 61 133 3.0 9.0 0.00 0.86 0.84 88 1011.3
20260506184503 61 141 5.0 15.0 0.00 0.86 0.84 89 1011.1
20260506183817 60 158 2.0 13.0 0.00 0.86 0.84 93 1011.0
20260506182703 60 90 2.0 6.0 0.00 0.86 0.84 96 1011.1
20260506181803 60 80 2.0 4.0 0.00 0.86 0.84 96 1011.3
20260506180903 60 99 0.0 2.0 0.00 0.86 0.84 96 1011.2
20260506180004 60 32 1.0 2.0 0.08 0.86 0.84 95 1011.1
20260506175618 60 25 0.0 4.0 0.13 0.86 0.84 95 1011.1
20260506174503 60 37 2.0 4.0 0.13 0.86 0.84 94 1011.2
20260506173603 60 140 1.0 4.0 0.13 0.86 0.84 94 1011.1
20260506172703 61 240 1.0 4.0 0.13 0.86 0.84 94 1011.0
20260506172017 61 256 2.0 7.0 0.13 0.86 0.84 94 1010.9
20260506170903 61 235 2.0 15.0 0.13 0.86 0.84 92 1010.8
20260506170003 63 150 5.0 11.0 0.05 0.78 0.76 87 1010.1
20260506165403 64 134 4.0 11.0 0.00 0.73 0.71 83 1010.1
20260506164717 64 119 4.0 8.0 0.00 0.73 0.71 83 1009.8
20260506163818 65 152 2.0 9.0 0.00 0.73 0.71 82 1010.1
20260506162917 65 191 2.0 9.0 0.00 0.73 0.71 81 1010.4
20260506162017 65 196 2.0 6.0 0.00 0.73 0.71 81 1010.6
20260506161118 65 125 3.0 6.0 0.00 0.73 0.71 81 1010.6
20260506160003 66 127 4.0 8.0 0.00 0.74 0.71 80 1010.7
20260506155403 67 133 4.0 8.0 0.00 0.74 0.71 79 1010.7
20260506154503 67 132 0.0 11.0 0.00 0.74 0.71 80 1010.9
20260506153818 66 114 3.0 11.0 0.00 0.74 0.71 82 1010.6
20260506152703 67 113 4.0 7.0 0.00 0.74 0.71 81 1011.0
20260506151803 67 122 2.0 6.0 0.00 0.76 0.71 81 1011.2
20260506150903 67 141 1.0 4.0 0.00 0.76 0.71 79 1011.3
20260506150217 68 170 2.0 8.0 0.00 0.76 0.71 81 1011.3
20260506145403 66 108 4.0 8.0 0.00 0.77 0.71 82 1011.6
20260506144503 66 113 1.0 4.0 0.00 0.77 0.71 84 1011.5
20260506143603 64 77 0.0 4.0 0.00 0.77 0.71 86 1011.6
20260506142917 63 53 2.0 4.0 0.00 0.77 0.71 88 1011.5
20260506141803 62 49 1.0 2.0 0.00 0.78 0.71 88 1011.5
20260506141118 62 33 1.0 4.0 0.00 0.78 0.71 88 1011.5
20260506140003 62 347 2.0 2.0 0.00 0.79 0.71 88 1011.9
20260506135403 62 2 1.0 2.0 0.00 0.79 0.71 88 1011.8
20260506134503 62 356 1.0 4.0 0.00 0.80 0.71 89 1011.9
20260506133603 61 68 2.0 4.0 0.00 0.80 0.71 88 1011.7
20260506132703 61 44 2.0 6.0 0.00 0.80 0.71 88 1011.8
20260506131804 63 129 3.0 4.0 0.00 0.80 0.71 85 1012.2
20260506130903 64 177 2.0 8.0 0.00 0.80 0.71 85 1012.3
20260506130004 64 190 3.0 6.0 0.00 0.80 0.71 84 1012.2
20260506125403 64 195 2.0 6.0 0.00 0.80 0.71 85 1012.2
20260506124503 63 218 2.0 4.0 0.00 0.80 0.71 85 1012.3
20260506123603 62 181 1.0 9.0 0.00 0.81 0.71 87 1012.4
20260506122703 61 206 2.0 11.0 0.00 0.81 0.71 90 1012.4
20260506121803 61 190 5.0 11.0 0.00 0.81 0.71 88 1012.5
20260506120903 61 289 2.0 8.0 0.00 0.81 0.71 89 1012.5
20260506120004 61 208 3.0 8.0 0.00 0.81 0.71 88 1012.3
20260506115617 62 198 4.0 8.0 0.00 0.81 0.71 87 1012.1
20260506114503 62 173 2.0 8.0 0.00 0.81 0.71 86 1012.2
20260506113603 62 162 3.0 9.0 0.00 0.81 0.71 86 1012.4
20260506112703 62 196 2.0 13.0 0.00 0.83 0.71 87 1012.5
20260506111803 62 173 4.0 13.0 0.00 0.83 0.71 86 1012.6
20260506110903 62 171 2.0 9.0 0.00 0.83 0.71 87 1012.5
20260506110003 61 150 5.0 18.0 0.00 0.83 0.71 88 1012.3
20260506105403 61 130 4.0 18.0 0.00 0.83 0.71 87 1012.6
20260506104503 62 137 5.0 11.0 0.00 0.83 0.71 89 1012.5
20260506103603 62 134 4.0 9.0 0.01 0.83 0.71 90 1012.5
20260506102703 61 143 4.0 11.0 0.01 0.83 0.71 91 1012.8
20260506101803 60 133 4.0 13.0 0.06 0.83 0.71 92 1012.8
20260506100903 59 128 7.0 11.0 0.07 0.83 0.71 92 1012.7
20260506100003 59 151 3.0 11.0 0.09 0.83 0.71 93 1012.9
20260506095403 59 124 3.0 11.0 0.11 0.84 0.71 94 1013.0
20260506094718 58 147 2.0 9.0 0.12 0.84 0.71 95 1012.8
20260506093603 58 122 4.0 8.0 0.15 0.83 0.70 96 1013.1
20260506092917 58 112 1.0 9.0 0.19 0.83 0.70 96 1012.9
20260506091803 58 87 2.0 4.0 0.19 0.78 0.65 97 1012.8
20260506090903 58 95 2.0 6.0 0.20 0.77 0.64 97 1013.1
20260506090003 58 69 2.0 7.0 0.21 0.74 0.61 97 1012.8
20260506085403 58 72 2.0 6.0 0.22 0.73 0.60 97 1012.8
20260506084503 58 75 2.0 4.0 0.25 0.72 0.59 97 1013.0
20260506083603 58 84 2.0 2.0 0.21 0.67 0.54 97 1012.7
20260506082703 58 101 2.0 2.0 0.20 0.63 0.50 97 1012.9
20260506081803 58 98 2.0 4.0 0.20 0.59 0.46 97 1013.0
20260506080903 58 97 1.0 2.0 0.21 0.57 0.44 98 1012.9
20260506072703 58 45 1.0 4.0 0.24 0.43 0.30 97 1012.6
20260506071803 58 11 2.0 4.0 0.21 0.39 0.26 97 1012.6
20260506070903 58 28 2.0 4.0 0.18 0.35 0.22 97 1012.5
20260506070218 58 27 2.0 2.0 0.15 0.33 0.20 97 1012.6
20260506061803 58 14 0.0 2.0 0.05 0.18 0.05 97 1012.6
20260506060903 58 42 0.0 2.0 0.05 0.18 0.05 97 1012.5